ATLAS 5 CENTAUR DEB, 44651

Orbit data source: Space-Track

ATLAS 5 CENTAUR DEB, 44651 is space debris in HEO originally from a launch on Wed, 17 Oct 2018 UTC launched from the Air Force Eastern Test Range (AFETR). Debris objects in space refer to the collection of defunct objects orbiting the Earth. Examples of debris include non-operational satellites, rocket bodies, and fragments generated from explosions, collisions, or faulty payload assembly.

Loading next visibility...
Identifier
44651, 2018-079M
Orbit
HEO
Country
Flag of USUS
Related business
Flag of USUnited Launch Alliance/Lockheed Martin (US)
Manufacturer
ULA Decatur
Mission
Spacecraft
Bus & Motor
Unknown
Mass
Unknown
Launch date (UTC)
2018-10-17 (8 years ago)
Launch vehicle
Unknown
Launch site
Air Force Eastern Test Range (AFETR)
Object type
Payload
Rocket body
Debris
Shape & HBR
Unknown shape, 1.1 m
Radar Cross Section
RCS unknown

Expand to show TLE details & history
Last TLE update: 1 day ago

TLE from 1 day ago
0 ATLAS 5 CENTAUR DEB
1 44651U 18079M   26127.00317075 -.00000126  00000-0  00000-0 0  9996
2 44651  13.2518  36.5008 4673760 314.5054  15.7470  1.83299744 47326
Epoch: 2026-05-07T00:04Z
TLE epoch observation values (Epoch: 2026-05-07T00:04:33.952Z)
Latitude
0.00004°
Longitude
170.45183°
Altitude
10,227.642 km
Speed
5.82 km/s
True Right ascension
02h 25m 47s
True Declination
0° 00' 00"
Sunlit
Object was in daylight at epoch
Visualization orbit readout
Latitude
Unknown
Longitude
Unknown
Altitude
Unknown
Speed
Unknown
Apparent Right ascension
Unknown
Apparent Declination
Unknown
Sunlit
N/A
Visualization observer readout
Local Sidereal Time
12:53:33
Azimuth
Unknown
Elevation
Unknown
Doppler factor
Unknown
Orbital elements
Apogee altitude
35,009.218 km
Perigee altitude
8,644.528 km
Semi-major axis
28,205.01 km
Eccentricity
0.46738
Inclination
13.2518°
RAAN
36.5008°
Arg. of periapsis
314.5054°
True anomaly
45.77755°
Mean anomaly
15.747°
Eccentric anomaly
28.54187°
Mean motion
0.4582 °/min
Orbital period
785.69 mins
BSTAR
0
Loading maneuver chart data...
Computing Atmospheric mass density...

Documentation

Showing up to 5 results
|